Quincy, IL

7:43 PM CDT on October 17, 2017 (GMT -0500)
Quincy Regional-Baldwin

Weather History for KUIN - February, 2011

Change the Weather History Date:

Friday, February 18, 2011

  Actual Average Record
Temperature  
Mean Temperature 46 °F 32 °F  
Max Temperature 54 °F 40 °F 68 °F (1971)
Min Temperature 35 °F 23 °F -14 °F (1936)
Degree Days  
Heating Degree Days 18 33  
Month to date heating degree days 642  
Since 1 July heating degree days 4028  
Cooling Degree Days 0 0  
Month to date cooling degree days 0  
Year to date cooling degree days 0  
Moisture  
Dew Point 30 °F    
Average Humidity 57    
Maximum Humidity 73    
Minimum Humidity 37    
Precipitation  
Precipitation 0.00 in 0.07 in 1.16 in (1991)
Month to date precipitation 1.11  
Year to date precipitation 2.63  
Sea Level Pressure  
Sea Level Pressure 30.20 in    
Wind  
Wind Speed 7 mph (NNW)    
Max Wind Speed 13 mph    
Max Gust Speed -    
Visibility 10 miles    
Events      
T = Trace of Precipitation, MM = Missing Value Source: NWS Daily Summary

Daily Weather History Graph

Daily Weather History Graph

Search for Another Location

Airport or City:

Trip Planner

Search our weather history database for the weather conditions in past years. The results will help you decide how hot, cold, wet, or windy it might be!

Date:

Astronomy

Feb. 18, 2011 Rise Set
Actual Time 6:53 AM CST 5:44 PM CST
Civil Twilight 6:26 AM CST 6:11 PM CST
Nautical Twilight 5:54 AM CST 6:43 PM CST
Astronomical Twilight 5:23 AM CST 7:14 PM CST
Moon 6:36 PM CST 6:43 AM CST
Length of Visible Light 11h 45m
Length of Day
10h 50m
Full, 100% of the Moon is Illuminated
Feb 18
Full
Feb 24
Last Quarter
Mar 4
New
Mar 12
First Quarter
Mar 19
Full

Hourly Weather History & Observations

Time (CST) Temp. Windchill Dew Point Humidity Pressure Visibility Wind Dir Wind Speed Gust Speed Precip Events Conditions
12:54 AM 46.0 °F 40.6 °F 34.0 °F 63% 29.96 in 10.0 mi NNW 11.5 mph - N/A   Clear
1:54 AM 42.1 °F 39.2 °F 32.0 °F 67% 29.98 in 10.0 mi NNW 4.6 mph - N/A   Clear
2:54 AM 41.0 °F 39.0 °F 32.0 °F 70% 30.01 in 10.0 mi West 3.5 mph - N/A   Clear
3:54 AM 41.0 °F 37.1 °F 30.9 °F 67% 30.05 in 10.0 mi West 5.8 mph - N/A   Scattered Clouds
4:54 AM 41.0 °F 37.1 °F 32.0 °F 70% 30.06 in 10.0 mi West 5.8 mph - N/A   Scattered Clouds
5:54 AM 39.9 °F 36.7 °F 30.9 °F 70% 30.10 in 10.0 mi WNW 4.6 mph - N/A   Mostly Cloudy
6:54 AM 39.0 °F 35.7 °F 30.0 °F 70% 30.13 in 10.0 mi West 4.6 mph - N/A   Partly Cloudy
7:54 AM 39.0 °F 34.0 °F 30.9 °F 73% 30.17 in 10.0 mi WNW 6.9 mph - N/A   Partly Cloudy
8:54 AM 41.0 °F 33.9 °F 30.9 °F 67% 30.21 in 10.0 mi NW 12.7 mph - N/A   Clear
9:54 AM 44.1 °F 39.5 °F 30.0 °F 58% 30.24 in 10.0 mi NW 8.1 mph - N/A   Clear
10:54 AM 46.9 °F - 30.9 °F 54% 30.26 in 10.0 mi NW 11.5 mph - N/A   Clear
11:54 AM 48.9 °F - 28.9 °F 46% 30.27 in 10.0 mi NW 6.9 mph - N/A   Clear
12:54 PM 51.1 °F - 26.1 °F 38% 30.26 in 10.0 mi WNW 10.4 mph - N/A   Clear
1:54 PM 53.1 °F - 28.0 °F 38% 30.26 in 10.0 mi WNW 8.1 mph - N/A   Clear
2:54 PM 53.6 °F - 28.4 °F 38% 30.25 in 10.0 mi NW 5.8 mph - N/A   Clear
3:54 PM 54.0 °F - 28.0 °F 37% 30.26 in 10.0 mi NNW 5.8 mph - N/A   Clear
4:54 PM 51.1 °F - 30.0 °F 44% 30.27 in 10.0 mi NNW 4.6 mph - N/A   Clear
5:54 PM 48.0 °F - 32.0 °F 54% 30.28 in 10.0 mi NNE 5.8 mph - N/A   Clear
6:54 PM 46.9 °F - 30.0 °F 52% 30.30 in 10.0 mi ENE 3.5 mph - N/A   Clear
7:54 PM 43.0 °F 41.3 °F 28.0 °F 56% 30.30 in 10.0 mi NE 3.5 mph - N/A   Clear
8:54 PM 42.8 °F 40.1 °F 28.4 °F 57% 30.30 in 10.0 mi ENE 4.6 mph - N/A   Clear
9:54 PM 43.0 °F 40.3 °F 28.9 °F 58% 30.32 in 10.0 mi ENE 4.6 mph - N/A   Clear
10:54 PM 42.1 °F 40.2 °F 26.1 °F 53% 30.34 in 10.0 mi East 3.5 mph - N/A   Clear
11:54 PM 35.1 °F 29.3 °F 27.0 °F 72% 30.34 in 10.0 mi ENE 6.9 mph - N/A   Clear